User: anonymous
Location: Caltech
(34.1382°N, 118.1253°W)
Time: 18:02:09
(UTC-07:00)
Language:

AO-27 - Orbit

View from above orbital plane
View from above orbital plane
View from above satellite
View from above satellite

Ground track
Ground track

The orbit data is extracted from the following two-line orbital elements,

1 22825U 93061C   14237.12584674  .00000050  00000-0  36599-4 0  7452
2 22825 098.6671 182.8553 0009628 096.8356 330.9526 14.29737627 90636
Epoch (UTC): 25 August 2014 03:01:13
Eccentricity: 0.0009628
inclination: 98.6671°
perigee height: 786 km
apogee height: 799 km
right ascension of ascending node: 182.8553°
argument of perigee: 96.8356°
revolutions per day: 14.29737627
mean anomaly at epoch: 330.9526°
orbit number at epoch: 9063

The dashed part of the orbit path shows where the satellite is in the earth's shadow,  

DLR